Simultaneous Nadir Overpasses (SNOs) Predictions

Prediction of SNOs between GOES-16 and NOAA-21 Satellite Orbit:

Table of predicted SNOs for the next 14.0 days since TLE Epoch: 9/28/2024
Index Date Time (GOES-16) GOES-16 Lat,Lon NOAA-21 Lat,Lon Distance(km) Time Diff (sec)
1 09/28/2024 18:39:50 -0.06, -75.21 -0.85, -78.71 399.46 80
2 09/29/2024 18:23:47 -0.05, -75.22 0.18, -74.19 117.19 80
3 10/01/2024 06:42:57 0.05, -75.22 1.02, -79.46 484.25 80
4 10/02/2024 06:26:55 0.05, -75.23 -0.02, -74.94 32.90 80
5 10/04/2024 18:27:31 -0.05, -75.28 -0.16, -75.72 51.04 80
6 10/05/2024 18:11:28 -0.05, -75.29 0.88, -71.20 466.56 80
7 10/07/2024 06:30:38 0.05, -75.30 0.34, -76.47 133.82 80
8 10/08/2024 06:11:55 0.05, -75.31 -0.72, -71.95 383.78 80
9 10/09/2024 18:33:53 -0.04, -75.35 -0.49, -77.25 217.32 80
10 10/10/2024 18:17:51 -0.04, -75.37 0.58, -72.74 300.49 80
